INTELSAT 33E DEB, 64405

Orbit data source: Space-Track

INTELSAT 33E DEB, 64405 is space debris in GEO originally from a launch on Wed, 24 Aug 2016 UTC launched from the French Guiana (FRGUI). Debris objects in space refer to the collection of defunct objects orbiting the Earth. Examples of debris include non-operational satellites, rocket bodies, and fragments generated from explosions, collisions, or faulty payload assembly.

Loading next visibility...
Identifier
64405, 2016-053AK
Orbit
GEO
Country
Flag of USUS / ITSO
Related business
Manufacturer
Boeing/ES
Mission
Spacecraft
Bus & Motor
Unknown
Mass
Unknown
Launch date (UTC)
2016-08-24 (10 years ago)
Launch vehicle
Unknown
Launch site
French Guiana (FRGUI)
Object type
Payload
Rocket body
Debris
Shape & HBR
Unknown shape, 1.1 m
Radar Cross Section
RCS unknown

Expand to show TLE details & history
Last TLE update: 1 day ago

TLE from 1 day ago
0 INTELSAT 33E DEB
1 64405U 16053AK  26120.77875489 -.00000257  00000-0  00000-0 0  9995
2 64405   1.6066  93.9216 0074161  12.8429 347.5919  0.99506486  5432
Epoch: 2026-04-30T18:41Z
TLE epoch observation values (Epoch: 2026-04-30T18:41:24.422Z)
Latitude
-0°
Longitude
-44.89893°
Altitude
35,696.169 km
Speed
3.089 km/s
True Right ascension
06h 16m 41s
True Declination
0° 00' 00"
Sunlit
Object was in daylight at epoch
Visualization orbit readout
Latitude
Unknown
Longitude
Unknown
Altitude
Unknown
Speed
Unknown
Apparent Right ascension
Unknown
Apparent Declination
Unknown
Sunlit
N/A
Visualization observer readout
Local Sidereal Time
02:24:54
Azimuth
Unknown
Elevation
Unknown
Doppler factor
Unknown
Orbital elements
Apogee altitude
36,317.881 km
Perigee altitude
35,689.267 km
Semi-major axis
42,381.711 km
Eccentricity
0.00742
Inclination
1.6066°
RAAN
93.9216°
Arg. of periapsis
12.8429°
True anomaly
347.40763°
Mean anomaly
347.5919°
Eccentric anomaly
347.49993°
Mean motion
0.24876 °/min
Orbital period
1,447.2 mins
BSTAR
0
Loading maneuver chart data...
Computing Atmospheric mass density...
Loading historical data...
Loading historical data...
Loading historical data...
Loading historical data...
Loading historical data...
Loading historical data...
Loading historical data...

Documentation

Showing up to 5 results
|